TimeCST,TemperatureF,Dew PointF,Humidity,Sea Level PressureIn,VisibilityMPH,Wind Direction,Wind SpeedMPH,Gust SpeedMPH,PrecipitationIn,Events,Conditions,WindDirDegrees,DateUTC
12:15 AM,32.0,32.0,100,30.13,4.0,Calm,Calm,-,N/A,,Overcast,0,2012-11-08 06:15:00
12:35 AM,32.0,32.0,100,30.13,3.0,Calm,Calm,-,N/A,,Overcast,0,2012-11-08 06:35:00
1:15 AM,33.8,32.0,93,30.13,4.0,Calm,Calm,-,N/A,,Overcast,0,2012-11-08 07:15:00
1:35 AM,33.8,32.0,93,30.13,4.0,South,3.5,-,N/A,,Overcast,180,2012-11-08 07:35:00
1:55 AM,33.8,32.0,93,30.13,5.0,South,3.5,-,N/A,,Overcast,180,2012-11-08 07:55:00
2:15 AM,33.8,32.0,93,30.14,5.0,South,3.5,-,N/A,,Overcast,170,2012-11-08 08:15:00
2:35 AM,33.8,32.0,93,30.13,5.0,SSE,3.5,-,N/A,,Overcast,160,2012-11-08 08:35:00
2:55 AM,33.8,32.0,93,30.13,5.0,South,4.6,-,N/A,,Overcast,170,2012-11-08 08:55:00
3:15 AM,35.6,33.8,93,30.13,5.0,Calm,Calm,-,N/A,,Overcast,0,2012-11-08 09:15:00
3:35 AM,35.6,33.8,93,30.12,5.0,South,4.6,-,N/A,,Overcast,170,2012-11-08 09:35:00
3:55 AM,35.6,33.8,93,30.13,7.0,South,4.6,-,N/A,,Overcast,180,2012-11-08 09:55:00
4:15 AM,35.6,32.0,87,30.13,10.0,South,4.6,-,N/A,,Overcast,190,2012-11-08 10:15:00
4:35 AM,35.6,32.0,87,30.13,10.0,SSW,3.5,-,N/A,,Overcast,210,2012-11-08 10:35:00
4:55 AM,35.6,32.0,87,30.13,10.0,Calm,Calm,-,N/A,,Overcast,0,2012-11-08 10:55:00
5:15 AM,35.6,32.0,87,30.12,10.0,South,3.5,-,N/A,,Overcast,170,2012-11-08 11:15:00
5:35 AM,33.8,32.0,93,30.12,10.0,South,4.6,-,N/A,,Overcast,190,2012-11-08 11:35:00
5:55 AM,33.8,32.0,93,30.12,10.0,South,3.5,-,N/A,,Overcast,170,2012-11-08 11:55:00
6:15 AM,33.8,32.0,93,30.12,7.0,SSE,5.8,-,N/A,,Overcast,160,2012-11-08 12:15:00
6:35 AM,33.8,32.0,93,30.12,10.0,SSE,5.8,-,N/A,,Mostly Cloudy,160,2012-11-08 12:35:00
6:55 AM,32.0,32.0,100,30.12,7.0,South,4.6,-,N/A,,Scattered Clouds,180,2012-11-08 12:55:00
7:15 AM,33.8,32.0,93,30.12,10.0,South,4.6,-,N/A,,Mostly Cloudy,180,2012-11-08 13:15:00
7:35 AM,33.8,32.0,93,30.13,10.0,South,4.6,-,N/A,,Overcast,190,2012-11-08 13:35:00
7:55 AM,35.6,32.0,87,30.14,10.0,SSW,4.6,-,N/A,,Overcast,200,2012-11-08 13:55:00
8:15 AM,37.4,33.8,87,30.13,10.0,South,5.8,-,N/A,,Scattered Clouds,190,2012-11-08 14:15:00
8:35 AM,37.4,33.8,87,30.13,10.0,South,8.1,-,N/A,,Clear,190,2012-11-08 14:35:00
8:55 AM,41.0,32.0,70,30.14,10.0,SSW,11.5,-,N/A,,Clear,200,2012-11-08 14:55:00
9:15 AM,41.0,32.0,70,30.13,10.0,SSW,12.7,18.4,N/A,,Clear,210,2012-11-08 15:15:00
9:35 AM,41.0,32.0,70,30.13,10.0,South,10.4,-,N/A,,Clear,190,2012-11-08 15:35:00
9:55 AM,42.8,32.0,66,30.12,10.0,South,13.8,-,N/A,,Scattered Clouds,190,2012-11-08 15:55:00
10:15 AM,42.8,32.0,66,30.12,10.0,SSW,13.8,-,N/A,,Scattered Clouds,210,2012-11-08 16:15:00
10:35 AM,44.6,32.0,61,30.11,10.0,SSW,16.1,-,N/A,,Scattered Clouds,200,2012-11-08 16:35:00
10:55 AM,44.6,32.0,61,30.10,10.0,SSW,13.8,-,N/A,,Clear,210,2012-11-08 16:55:00
11:15 AM,44.6,32.0,61,30.10,10.0,SSW,12.7,-,N/A,,Clear,200,2012-11-08 17:15:00
11:35 AM,44.6,32.0,61,30.09,10.0,South,12.7,-,N/A,,Clear,190,2012-11-08 17:35:00
11:55 AM,46.4,32.0,57,30.07,10.0,South,12.7,-,N/A,,Clear,190,2012-11-08 17:55:00
12:15 PM,46.4,33.8,62,30.07,10.0,SSW,11.5,-,N/A,,Clear,200,2012-11-08 18:15:00
12:35 PM,46.4,32.0,57,30.06,10.0,South,11.5,-,N/A,,Clear,180,2012-11-08 18:35:00
12:55 PM,50.0,33.8,54,30.05,10.0,South,13.8,-,N/A,,Clear,190,2012-11-08 18:55:00
1:55 PM,50.0,33.8,54,30.03,10.0,South,12.7,-,N/A,,Clear,190,2012-11-08 19:55:00
2:15 PM,50.0,32.0,50,30.02,10.0,SSW,10.4,-,N/A,,Clear,200,2012-11-08 20:15:00
2:35 PM,50.0,33.8,54,30.02,10.0,SSW,12.7,-,N/A,,Clear,210,2012-11-08 20:35:00
2:55 PM,50.0,33.8,54,30.02,10.0,South,12.7,-,N/A,,Clear,190,2012-11-08 20:55:00
3:15 PM,50.0,33.8,54,30.02,10.0,SSW,11.5,-,N/A,,Clear,200,2012-11-08 21:15:00
3:35 PM,48.2,33.8,58,30.02,10.0,SSW,12.7,16.1,N/A,,Clear,210,2012-11-08 21:35:00
4:15 PM,46.4,33.8,62,30.00,10.0,SSW,10.4,-,N/A,,Clear,210,2012-11-08 22:15:00
4:35 PM,44.6,33.8,66,30.00,10.0,South,8.1,-,N/A,,Clear,180,2012-11-08 22:35:00
4:55 PM,42.8,33.8,70,30.00,10.0,South,6.9,-,N/A,,Clear,190,2012-11-08 22:55:00
5:15 PM,42.8,33.8,70,30.00,10.0,South,6.9,-,N/A,,Clear,190,2012-11-08 23:15:00
5:35 PM,42.8,33.8,70,30.00,10.0,South,6.9,-,N/A,,Clear,180,2012-11-08 23:35:00
5:55 PM,42.8,33.8,70,30.01,10.0,South,5.8,-,N/A,,Clear,190,2012-11-08 23:55:00
6:15 PM,41.0,33.8,76,30.01,10.0,South,4.6,-,N/A,,Clear,180,2012-11-09 00:15:00
6:35 PM,42.8,33.8,70,30.02,10.0,SSW,5.8,-,N/A,,Clear,200,2012-11-09 00:35:00
6:55 PM,41.0,33.8,76,30.02,10.0,South,5.8,-,N/A,,Clear,180,2012-11-09 00:55:00
7:15 PM,41.0,33.8,76,30.01,10.0,South,5.8,-,N/A,,Clear,180,2012-11-09 01:15:00
7:35 PM,41.0,33.8,76,30.02,10.0,South,4.6,-,N/A,,Clear,190,2012-11-09 01:35:00
7:55 PM,41.0,33.8,76,30.03,10.0,SW,3.5,-,N/A,,Clear,220,2012-11-09 01:55:00
8:15 PM,41.0,33.8,76,30.03,10.0,Calm,Calm,-,N/A,,Clear,0,2012-11-09 02:15:00
8:35 PM,37.4,32.0,81,30.04,10.0,Calm,Calm,-,N/A,,Clear,0,2012-11-09 02:35:00
8:55 PM,35.6,33.8,93,30.04,10.0,Calm,Calm,-,N/A,,Clear,0,2012-11-09 02:55:00
9:15 PM,35.6,32.0,87,30.05,10.0,Calm,Calm,-,N/A,,Clear,0,2012-11-09 03:15:00
9:35 PM,33.8,32.0,93,30.05,7.0,Calm,Calm,-,N/A,,Clear,0,2012-11-09 03:35:00
9:55 PM,33.8,32.0,93,30.05,5.0,Calm,Calm,-,N/A,,Clear,0,2012-11-09 03:55:00
10:15 PM,35.6,32.0,87,30.05,7.0,SE,3.5,-,N/A,,Clear,130,2012-11-09 04:15:00
10:35 PM,33.8,32.0,93,30.06,5.0,Calm,Calm,-,N/A,,Clear,0,2012-11-09 04:35:00
10:55 PM,33.8,32.0,93,30.06,5.0,ESE,3.5,-,N/A,,Clear,120,2012-11-09 04:55:00
11:15 PM,32.0,32.0,100,30.06,4.0,ESE,4.6,-,N/A,,Clear,120,2012-11-09 05:15:00
11:35 PM,33.8,32.0,93,30.06,7.0,SE,3.5,-,N/A,,Clear,130,2012-11-09 05:35:00
11:55 PM,32.0,32.0,100,30.06,4.0,SE,3.5,-,N/A,,Clear,140,2012-11-09 05:55:00